Location: Davayat
(45.9471°N, 3.1105°E)
Time: 16:36:35
(UTC+00:00)

Cosmos 2112 Rocket - Pass Details

Date: 01 December 2020
Orbit: 756 x 787 km, 74.1° (Epoch: 17 January)

Event Time Altitude Azimuth Distance (km) Brightness Sun altitude
Rises 18:02:36 0° 180° (S) 3,228 7.4 -19.9°
Reaches altitude 10° 18:05:03 10° 173° (S) 2,311 6.5 -20.4°
Enters shadow 18:09:54 43° 106° (ESE) 1,091 4.3 -21.2°
